Theta_e
322 322 323 323 324 324 325 325 325 326 325 325 325 325 324 323 323 322 322 322 321 322 322 320 320 320 319 315 315 311 310 309 309 309 312 312 313 314 315 314 314 315 317 316 316 315 315
325 325 326 326 325 325 324 324 325 324 323 324 324 323 322 322 322 321 322 321 321 321 320 320 320 320 318 317 315 312 311 312 312 313 314 314 313 313 313 314 314 313 313 314 314 315 314
325 325 324 323 321 321 321 321 322 323 322 323 323 322 323 321 321 321 321 321 321 321 321 319 320 319 315 316 313 311 314 313 313 312 314 314 313 313 313 314 312 313 314 314 314 314 314
324 322 321 320 320 319 319 319 320 320 321 322 322 322 322 320 320 321 320 320 320 320 320 318 319 318 317 315 312 313 313 313 313 313 313 313 313 314 314 314 314 314 315 315 315 315 312
321 320 320 319 317 316 315 316 318 319 319 320 319 319 320 320 319 319 319 318 317 318 316 315 315 314 318 313 313 313 313 313 313 312 312 313 313 314 314 316 315 314 315 315 314 314 315
319 318 317 315 313 312 313 315 316 317 317 317 319 319 319 318 317 316 316 314 316 313 312 313 313 316 315 315 313 313 313 311 311 312 313 313 315 316 316 316 316 315 314 315 315 316 316
318 317 315 312 311 311 311 311 314 315 316 316 315 315 315 313 312 311 310 309 312 314 311 311 312 312 312 311 310 311 310 310 311 312 314 314 315 317 316 314 314 313 314 314 315 315 314
314 312 311 311 311 310 310 311 311 311 310 311 310 310 310 309 309 307 306 307 307 307 308 309 309 309 309 308 309 310 309 311 312 314 314 314 315 315 313 313 313 314 314 315 314 314 314
311 310 310 309 308 309 311 311 310 310 310 310 310 309 309 308 307 306 305 307 309 309 310 309 308 308 308 308 309 309 309 310 312 313 313 314 314 312 312 312 312 313 313 313 313 313 314
308 308 308 309 310 311 311 311 311 310 310 309 309 308 308 307 306 305 308 307 308 309 311 311 307 308 309 309 311 310 309 309 310 310 310 311 310 310 310 311 312 313 313 313 313 313 315
306 307 306 309 309 310 310 309 310 309 309 309 309 309 308 307 306 305 303 306 309 305 314 308 310 308 308 309 310 312 310 309 311 311 312 312 312 312 313 313 313 313 312 313 313 314 314
305 305 305 307 307 306 308 309 309 309 310 309 309 309 308 308 307 305 302 306 308 309 311 309 309 312 312 311 311 311 312 311 310 311 311 311 310 311 312 312 311 312 312 313 313 314 314
301 301 301 302 304 306 307 307 308 309 308 309 309 309 308 307 307 306 302 308 309 308 307 308 308 311 311 312 312 312 312 313 312 312 312 311 311 311 310 311 311 312 313 313 314 315 314
299 299 299 298 299 300 302 303 305 306 307 308 307 308 308 308 307 306 303 308 308 305 306 305 306 307 308 311 311 312 312 311 312 311 311 311 311 311 311 311 311 312 312 313 312 313 313
299 299 299 299 299 300 299 300 301 302 304 305 307 309 308 307 306 306 306 310 305 305 304 305 305 305 306 308 309 310 311 311 311 312 310 310 311 311 309 310 311 312 312 312 313 313 313
296 296 296 297 297 298 298 298 299 299 301 302 304 307 307 307 306 306 308 307 306 304 304 304 304 305 306 307 308 308 309 310 311 312 312 312 312 310 310 309 309 310 311 312 313 313 313
293 294 294 295 295 295 295 296 297 298 299 301 303 305 305 305 306 306 308 307 306 304 303 304 304 305 305 305 306 306 307 308 309 309 309 311 310 309 309 310 310 310 310 310 310 311 312
291 291 291 291 291 291 292 293 293 296 298 300 302 303 303 305 305 305 306 306 305 305 304 304 304 305 305 305 305 305 305 306 306 306 308 309 310 310 309 309 309 310 309 310 311 310 310
293 293 293 293 292 291 291 291 294 293 297 301 301 302 302 303 306 306 305 306 305 306 306 306 306 305 306 305 306 305 305 305 304 306 307 309 309 308 308 309 308 308 309 309 310 310 308
294 293 293 292 291 292 293 292 293 295 295 300 300 303 301 302 303 304 305 306 305 304 305 305 306 305 305 306 306 307 305 305 305 306 305 306 307 308 309 308 307 308 308 308 308 311 309
290 289 289 290 292 293 292 292 291 294 293 297 299 301 302 304 302 303 304 305 305 306 304 304 304 305 304 304 304 304 305 304 304 305 306 306 306 306 306 306 305 305 306 306 306 306 307
290 291 292 292 291 290 290 293 293 292 293 294 298 299 299 300 302 304 303 304 305 305 305 305 305 305 305 305 305 306 305 305 304 305 306 306 305 305 309 305 305 307 306 306 305 305 305
291 290 290 290 290 290 290 291 293 293 292 295 295 297 298 300 302 302 304 303 305 304 304 304 304 305 307 306 305 305 305 305 306 306 306 306 305 305 306 306 306 307 309 307 306 306 306
288 288 291 291 291 291 291 290 290 293 293 293 295 294 296 300 300 301 302 302 303 302 303 303 304 304 304 304 303 305 305 305 305 307 306 306 306 306 308 307 308 307 306 305 305 305 305
289 290 290 291 290 291 291 291 291 290 292 293 294 294 295 297 297 299 299 300 301 301 303 302 302 303 304 302 305 307 305 306 306 306 306 306 306 307 308 306 306 306 305 305 305 306 307
291 291 291 291 291 290 290 290 290 291 290 292 293 293 294 295 297 296 297 298 300 301 301 302 303 303 302 303 307 305 304 305 305 306 306 306 306 307 309 309 306 305 305 306 307 307 309
291 291 291 290 290 290 290 290 290 290 290 290 292 293 294 295 295 296 298 299 299 300 301 301 302 303 302 305 306 305 305 306 307 306 307 308 309 309 307 307 305 305 305 306 306 306 308
290 290 289 290 289 289 290 290 290 290 289 290 292 292 293 295 295 295 296 297 298 299 301 300 301 303 303 306 306 304 305 306 306 305 304 305 307 307 306 306 305 304 306 306 307 306 306
291 291 290 291 290 289 290 290 290 290 290 290 291 292 291 293 294 295 295 296 296 297 297 297 300 300 301 305 305 305 305 306 305 306 304 305 305 306 306 304 306 306 306 305 305 304 306
Wind_Speed
16 15 16 16 16 16 18 18 19 19 20 19 21 23 24 26 28 27 23 24 25 27 29 29 28 30 30 16 11 13 11 12 12 9 8 9 6 4 4 5 8 10 7 5 7 7 10
18 17 17 17 18 19 19 19 20 21 20 19 21 22 25 27 29 28 26 27 27 27 29 29 29 29 25 14 12 13 8 6 7 4 5 7 5 6 7 4 7 3 10 12 10 12 9
18 18 19 19 20 21 21 20 21 21 20 20 20 22 22 26 28 28 30 29 28 30 30 29 28 27 22 15 10 3 1 3 7 10 7 4 4 6 4 6 3 7 9 8 10 6 5
21 21 20 20 20 20 20 19 19 19 19 18 18 19 23 26 27 29 29 31 31 30 28 28 23 20 11 14 7 3 1 1 7 15 6 5 3 4 5 5 6 8 6 9 8 4 3
22 21 20 19 18 17 17 16 15 15 15 15 16 18 20 22 26 27 25 29 29 27 23 20 16 9 10 2 3 7 7 11 19 8 5 5 2 5 6 8 9 7 11 5 4 1 3
21 19 18 17 15 13 12 12 11 10 11 11 12 13 14 17 22 27 29 28 26 19 13 11 6 6 6 1 13 19 17 14 6 8 7 7 6 7 6 8 9 8 8 8 9 4 7
21 19 17 15 12 10 8 8 8 9 10 12 15 17 19 18 19 23 26 24 11 3 3 13 27 23 33 17 13 10 12 15 10 8 11 5 9 10 9 6 10 11 12 15 14 12 11
18 16 14 13 12 13 13 12 14 13 13 13 12 12 14 16 17 17 17 7 6 8 12 22 26 21 24 20 9 9 5 7 8 9 6 6 13 11 4 7 10 12 14 15 13 10 7
17 16 15 14 13 13 11 10 8 8 7 8 9 10 12 13 13 12 12 8 9 13 9 10 7 6 2 2 3 4 1 4 5 6 9 12 6 0 6 11 12 13 15 17 18 15 14
17 17 15 15 12 10 8 8 6 7 6 7 8 9 10 10 5 13 5 10 10 11 5 2 1 1 2 1 3 2 3 2 3 2 4 7 3 7 11 14 10 13 6 12 13 10 9
15 15 14 13 12 14 12 11 10 10 9 9 9 8 8 9 9 9 10 6 7 6 6 3 2 1 1 5 6 3 2 2 4 2 4 3 5 6 9 8 7 5 3 5 7 9 8
13 13 13 12 14 13 14 15 13 13 13 11 9 9 7 8 10 10 9 3 3 3 7 1 1 2 4 3 3 2 3 3 2 4 6 12 4 6 12 7 9 7 6 5 7 8 11
13 12 13 13 14 15 16 15 14 16 16 14 12 11 8 7 5 9 6 0 4 6 3 2 0 2 4 4 4 4 5 6 7 7 8 4 11 4 6 9 9 10 8 6 7 7 10
13 13 14 15 16 17 17 17 17 17 17 16 13 13 12 10 7 6 1 4 9 1 7 2 3 9 6 2 5 5 6 11 10 9 10 10 9 8 8 8 5 10 12 9 11 9 9
15 15 15 15 16 16 17 18 17 17 17 17 16 14 14 11 7 5 3 7 6 7 2 4 10 14 15 8 7 8 12 14 10 10 9 7 8 4 6 5 6 6 8 5 13 14 11
16 16 17 17 18 18 18 18 16 15 15 15 15 16 18 14 11 6 6 12 9 6 2 2 7 6 11 9 7 6 9 1 5 7 10 6 11 7 5 6 8 8 4 6 6 11 17
11 12 12 12 13 14 16 17 17 16 14 13 12 7 7 12 17 10 9 10 9 12 6 6 9 12 11 12 14 15 9 8 5 3 6 9 11 14 6 11 14 8 10 9 9 9 11
10 10 10 10 11 12 12 12 12 13 12 12 11 5 8 17 12 7 11 11 9 14 10 14 11 15 17 17 18 20 18 15 1 4 11 9 7 11 15 3 4 10 14 14 11 12 11
9 9 8 8 8 9 9 10 8 8 10 9 6 9 7 22 7 11 15 13 22 19 14 11 12 11 10 13 9 14 18 23 25 14 8 6 7 11 16 10 9 10 12 11 8 7 15
11 11 11 12 11 8 8 7 7 5 11 11 4 3 8 21 13 15 18 20 20 16 23 23 14 14 13 15 14 9 12 5 6 13 7 5 14 14 13 13 5 7 10 8 10 11 14
13 12 10 10 9 10 8 5 8 9 9 14 7 4 7 3 12 9 16 12 18 13 17 11 8 18 14 7 12 16 17 18 18 13 7 5 15 16 15 13 11 14 18 18 20 21 19
9 8 8 8 8 10 10 7 5 10 9 13 4 6 4 5 6 8 12 14 22 21 9 6 15 15 7 11 15 14 14 12 12 7 12 6 12 8 4 10 12 15 17 16 21 23 22
13 12 12 11 10 10 10 12 9 9 11 9 12 12 4 5 5 9 14 10 8 16 10 18 16 12 11 17 19 18 16 18 16 14 13 11 8 10 18 16 13 16 14 20 22 21 20
15 13 13 14 13 12 11 12 15 15 14 15 11 10 5 10 12 13 10 10 9 13 16 18 20 18 8 6 9 17 20 19 21 20 21 19 11 3 7 10 15 16 7 11 15 14 14
17 17 16 15 15 15 15 14 12 16 18 18 15 12 6 11 19 17 20 17 16 15 16 13 18 20 6 3 2 6 10 11 17 20 19 17 15 9 7 13 17 15 14 16 17 15 13
20 19 18 18 17 14 15 18 18 16 18 20 18 17 12 9 14 26 23 21 15 14 14 13 15 13 14 3 5 5 6 6 4 4 9 17 14 7 6 5 7 4 5 5 4 11 6
23 21 19 18 17 17 18 19 19 18 18 20 19 15 16 12 24 20 12 10 10 8 8 14 8 8 16 4 7 7 9 3 5 5 1 9 9 13 11 10 9 5 7 5 10 4 2
26 24 23 21 18 18 19 18 18 19 19 20 20 21 20 15 26 21 15 15 17 11 8 3 6 7 6 6 4 4 6 7 6 7 4 9 6 8 8 11 14 7 4 11 4 12 14
32 31 28 25 21 18 19 19 18 19 20 20 22 20 22 22 17 13 15 21 24 24 21 8 7 6 7 4 6 4 5 4 8 7 11 11 12 8 5 5 4 5 7 9 10 12 13
Wind_Direction
240 244 251 257 262 267 273 278 283 287 292 297 302 304 307 313 316 320 324 324 324 322 324 325 325 328 334 322 303 303 314 311 306 314 312 319 314 310 290 302 294 259 280 265 240 244 263
247 254 263 269 274 275 278 282 283 285 288 291 293 300 309 312 315 321 321 320 320 320 320 320 320 324 325 291 290 310 329 2 18 9 327 315 300 304 283 262 261 317 284 276 271 262 256
254 256 263 269 273 276 278 276 278 279 279 283 290 297 299 305 309 315 317 317 316 316 316 315 315 319 310 283 296 288 105 30 15 2 344 318 284 281 317 267 295 281 279 259 248 245 228
252 257 261 266 270 276 279 277 272 275 277 277 288 293 295 303 309 310 315 319 320 319 315 313 312 309 273 289 267 210 113 88 358 333 323 301 258 276 272 295 246 262 255 262 136 215 149
251 255 261 268 273 276 282 280 278 275 274 278 286 297 302 307 308 316 321 322 324 321 312 307 307 311 288 295 179 228 232 307 314 288 281 283 249 275 257 262 259 201 278 252 203 208 262
249 257 263 265 271 276 283 293 296 304 304 302 305 307 309 314 320 320 321 321 325 321 313 309 316 296 242 185 299 265 271 292 307 277 258 228 236 251 234 249 277 313 282 263 271 146 268
247 252 255 260 262 267 270 283 289 287 290 294 299 302 306 313 321 324 326 340 338 286 314 293 278 276 281 294 307 278 285 279 260 234 245 210 250 250 291 285 289 280 270 272 275 279 279
240 242 243 245 256 265 272 269 271 272 279 288 295 307 315 321 326 329 336 17 8 310 300 297 276 270 270 282 287 309 253 209 200 230 198 225 248 277 286 263 252 251 263 267 274 266 253
230 237 243 252 259 267 266 270 275 284 289 298 308 316 321 325 326 339 354 8 354 342 276 294 273 275 275 207 283 316 228 206 231 233 224 263 289 246 250 261 258 257 267 276 271 281 269
233 238 244 245 251 244 248 266 261 263 278 296 311 321 331 339 340 352 354 350 341 337 290 292 294 25 308 261 251 268 255 269 193 246 244 264 288 263 249 252 258 265 286 270 267 259 266
224 229 235 236 235 243 245 253 254 264 279 291 303 313 334 1 354 3 330 326 344 342 296 73 120 231 292 269 323 177 266 285 284 188 224 88 211 232 250 262 201 290 286 266 256 251 279
224 228 235 236 238 248 254 248 254 262 268 272 283 292 314 336 345 344 339 332 337 221 251 2 322 328 270 238 252 244 217 222 257 263 244 270 258 256 257 257 253 285 217 235 252 265 252
235 236 240 243 248 250 249 250 247 253 254 260 271 274 277 302 315 329 340 240 228 221 105 141 330 341 306 260 255 242 230 217 252 265 247 226 236 213 226 247 217 216 235 260 239 213 262
237 242 246 246 249 251 253 253 251 252 258 262 267 270 255 263 290 315 4 232 234 279 247 6 298 289 259 261 237 234 241 257 221 241 280 276 269 194 171 244 298 218 244 253 273 282 290
244 246 249 252 252 254 257 257 254 251 253 255 253 257 247 250 267 272 216 227 244 222 255 283 287 269 266 256 256 253 257 274 276 220 249 275 243 174 217 222 229 158 225 281 281 269 271
255 259 259 259 260 259 258 258 258 256 254 253 255 254 251 237 254 234 223 232 243 232 251 246 259 253 267 265 267 249 271 151 253 244 237 261 270 231 218 231 214 252 336 238 219 265 264
248 251 253 258 261 262 262 258 256 255 251 249 249 259 249 210 220 210 224 222 258 249 242 234 258 256 261 280 278 273 265 280 254 248 247 272 261 266 210 222 245 203 228 230 275 269 278
241 250 260 265 267 266 267 270 261 249 245 242 222 230 202 192 201 218 230 229 243 242 236 251 268 264 267 268 271 270 266 260 353 294 270 253 271 254 257 262 289 268 269 260 245 252 240
230 240 250 266 275 282 272 261 269 249 214 221 230 236 209 195 230 229 243 243 242 247 239 235 237 238 254 261 269 258 265 265 269 256 261 209 232 260 248 208 209 233 235 252 272 275 262
239 245 256 267 272 267 271 269 238 254 212 211 218 229 204 206 245 249 257 255 246 247 249 246 247 264 258 256 252 265 268 275 286 260 254 233 255 257 267 285 335 235 224 234 258 257 265
246 254 256 254 246 254 263 277 239 225 225 221 224 234 220 208 226 223 242 266 245 232 234 233 251 239 241 248 261 260 263 265 264 258 237 237 259 266 266 275 276 275 271 270 262 258 256
232 235 242 252 259 264 249 240 244 224 226 227 245 240 263 294 215 225 233 228 247 250 220 226 233 253 249 228 247 269 286 271 267 264 245 226 253 268 256 266 268 269 261 253 261 261 261
238 241 243 249 259 266 258 235 227 219 226 237 239 253 268 255 276 251 246 243 265 272 261 240 240 236 243 238 270 270 268 269 266 263 262 261 260 253 257 256 265 264 250 242 257 253 251
242 239 241 245 250 261 269 254 232 225 231 237 247 256 270 266 250 253 261 249 264 271 261 269 253 243 269 225 265 267 253 255 250 245 242 243 223 255 273 254 255 273 239 254 259 266 263
242 245 250 256 258 244 248 257 258 233 234 246 243 237 243 256 267 269 257 268 283 273 264 255 247 245 241 314 202 250 240 242 239 235 232 228 233 238 241 253 269 247 236 265 263 279 263
248 253 254 258 261 255 252 247 247 247 239 244 247 236 236 266 253 259 266 271 271 275 284 270 286 252 226 212 214 222 232 226 228 197 236 225 226 209 213 240 252 293 144 171 261 267 153
250 256 258 262 258 248 251 252 250 246 242 243 248 238 233 245 260 263 250 266 277 266 270 284 275 222 199 213 210 231 240 148 217 198 200 198 195 218 233 254 269 254 233 227 252 289 359
250 254 253 252 257 248 250 253 253 253 245 241 248 243 239 252 259 264 265 263 263 259 261 343 319 231 192 219 214 215 243 202 225 182 201 209 199 216 238 250 266 225 156 225 337 318 308
244 246 246 246 250 255 251 253 253 250 243 239 244 242 245 247 257 281 263 255 259 261 276 267 270 325 302 211 221 237 215 194 226 240 205 245 231 262 257 268 36 187 239 259 275 290 302